"Timestamp","TZ","WindDir_Mean (deg)","WindSpd_Mean (km/h)","WindSpd_Min (km/h)","WindSpd_Max (km/h)","Temp_Mean (deg)","RH_Mean (%)","MSLP_Mean (hPa)","Rain_Acc (mm)","Rain_Intensity (mm/h)","Hail_Acc (hits/cm2)","Hail_Intensity (hits/cm2hr)","Solar_Mean (W/m2)"
2018/07/30 00:00:00.000,n,248,9.72,6.12,12.96,16.9,79.6,1016.42,0,0,0,0,0.020027
2018/07/30 00:01:00.000,n,291,9.72,9,11.88,16.9,80,1016.32,0,0,0,0,0.020905
2018/07/30 00:02:00.000,n,260,20.880002,14.04,25.56,16.8,79.2,1016.32,0,0,0,0,0.020027
2018/07/30 00:03:00.001,n,254,13.68,6.48,17.64,16.8,79.9,1016.32,0,0,0,0,0.018272
2018/07/30 00:04:00.006,n,247,8.28,5.76,9.36,16.700002,80.4,1016.32,0,0,0,0,0.017433
2018/07/30 00:05:00.000,n,231,9.72,8.28,12.24,16.700002,80.6,1016.32,0,0,0,0,0.014839
2018/07/30 00:06:00.000,n,290,5.4,3.96,6.84,16.700002,80.8,1016.32,0,0,0,0,0.012207
2018/07/30 00:07:00.006,n,228,8.64,6.48,10.08,16.700002,80.8,1016.22,0,0,0,0,0.013046
2018/07/30 00:08:00.012,n,254,10.8,9,12.96,16.700002,80.9,1016.22,0,0,0,0,0.020905
2018/07/30 00:09:00.001,n,266,9.72,9.36,10.440002,16.6,80.9,1016.22,0,0,0,0,0.025253
2018/07/30 00:10:00.000,n,268,19.44,13.32,22.68,16.6,80.2,1016.22,0,0,0,0,0.021782
2018/07/30 00:11:00.000,n,248,11.16,10.440002,12.6,16.6,80.9,1016.22,0,0,0,0,0.024376
2018/07/30 00:12:00.001,n,251,12.6,10.8,14.04,16.6,81,1016.22,0,0,0,0,0.022621
2018/07/30 00:13:00.007,n,223,7.56,6.84,8.28,16.6,81,1016.22,0,0,0,0,0.021782
2018/07/30 00:14:00.000,n,254,13.32,11.88,14.4,16.6,80.7,1016.22,0,0.3,0,0,0.014801
2018/07/30 00:15:00.001,n,253,13.32,11.88,14.76,16.6,81.1,1016.22,0,0,0,0,0.020905
2018/07/30 00:16:00.008,n,248,9.36,8.64,10.08,16.6,81.2,1016.22,0,0,0,0,0.018272
2018/07/30 00:17:00.014,n,248,13.68,12.96,14.76,16.6,80.8,1016.12,0,0,0,0,0.025253
2018/07/30 00:18:00.001,n,274,8.28,6.12,11.16,16.6,81.3,1016.22,0,0,0,0,0.032196
2018/07/30 00:19:00.000,n,260,15.48,11.52,18.72,16.6,80.8,1016.22,0,0,0,0,0.026131
2018/07/30 00:20:00.000,n,266,14.76,12.6,16.56,16.6,80.6,1016.22,0,0,0,0,0.023499
2018/07/30 00:21:00.002,n,234,5.4,4.32,7.2,16.5,81.4,1016.22,0,0,0,0,0.031357
2018/07/30 00:22:00.007,n,251,6.84,4.68,9.72,16.5,81.4,1016.22,0,0,0,0,0.029602
2018/07/30 00:23:00.000,n,269,5.04,3.96,6.12,16.5,81.3,1016.22,0,0,0,0,0.021782
2018/07/30 00:24:00.001,n,313,3.6,1.8,5.76,16.5,81.6,1016.22,0,0,0,0,0.024376
2018/07/30 00:25:00.006,n,267,9,7.2,12.24,16.5,81.1,1016.22,0,0,0,0,0.020027
2018/07/30 00:26:00.011,n,259,14.04,12.6,15.48,16.5,81.2,1016.22,0,0,0,0,0.023499
2018/07/30 00:27:00.017,n,261,7.92,6.12,8.64,16.5,81.2,1016.22,0,0,0,0,0.027008
2018/07/30 00:28:00.000,n,267,9.36,7.92,11.16,16.5,81,1016.32,0,0,0,0,0.030479
2018/07/30 00:29:00.000,n,266,7.92,6.12,10.8,16.5,81.1,1016.32,0,0,0,0,0.032196
2018/07/30 00:30:00.000,n,262,11.88,11.52,12.6,16.5,81.1,1016.32,0,0,0,0,0.029602
2018/07/30 00:31:00.002,n,277,5.04,3.96,5.4,16.5,81.2,1016.32,0,0,0,0,0.029602
2018/07/30 00:32:00.008,n,264,11.16,10.08,12.24,16.5,81,1016.32,0,0,0,0,0.027008
2018/07/30 00:33:00.000,n,244,7.2,7.2,7.92,16.5,81.2,1016.32,0.03,1.8,0,0,0.027847
2018/07/30 00:34:00.003,n,261,5.76,3.96,7.2,16.5,81.3,1016.32,0.06,1.8,0,0,0.026131
2018/07/30 00:35:00.000,n,273,9,9,9.36,16.5,81.2,1016.32,0.09,1.4,0,0,0.026131
2018/07/30 00:36:00.015,n,265,4.32,3.96,4.68,16.5,81.2,1016.32,0.12,1.7,0,0,0.026131
2018/07/30 00:37:00.000,n,289,5.04,3.96,6.12,16.5,81.4,1016.22,0.15,1.5,0,0,0.025215
2018/07/30 00:38:00.000,n,269,5.76,4.68,6.84,16.5,81.3,1016.22,0.16,1.1,0,0,0.020027
2018/07/30 00:39:00.000,n,272,3.96,3.24,4.32,16.5,81.6,1016.32,0.16,0.3,0,0,0.022659
2018/07/30 00:40:00.006,n,264,5.4,4.68,6.12,16.5,81.9,1016.32,0.18,0.7,0,0,0.026131
2018/07/30 00:41:00.003,n,324,1.44,0.36,2.88,16.5,81.8,1016.32,0.18,0.4,0,0,0.025215
2018/07/30 00:42:00.001,n,254,1.44,1.08,2.16,16.5,82,1016.22,0.18,0,0,0,0.024376
2018/07/30 00:43:00.000,n,280,2.88,2.52,3.24,16.5,82,1016.12,0.19,0.1,0,0,0.020027
2018/07/30 00:44:00.014,n,310,1.44,1.08,1.8,16.6,82.9,1016.12,0.19,0.4,0,0,0.023499
2018/07/30 00:45:00.011,n,285,3.24,2.88,3.96,16.6,82.4,1016.12,0.22,1.5,0,0,0.020866
2018/07/30 00:46:00.000,n,333,2.52,2.16,2.88,16.6,82.5,1016.12,0.22,0,0,0,0.01915
2018/07/30 00:47:00.000,n,287,1.8,1.08,2.16,16.6,82.4,1016.12,0.22,0,0,0,0.021782
2018/07/30 00:48:00.003,n,341,1.08,0.36,1.44,16.6,82.6,1016.12,0.22,0,0,0,0.022659
2018/07/30 00:49:00.000,n,283,2.16,1.44,2.88,16.6,82.6,1016.02,0.22,0,0,0,0.020866
2018/07/30 00:50:00.000,n,313,1.08,1.08,1.8,16.6,82.8,1016.02,0.22,0,0,0,0.027847
2018/07/30 00:51:00.011,n,310,3.24,2.88,3.96,16.6,82.9,1016.02,0.22,0,0,0,0.029602
2018/07/30 00:52:00.008,n,313,3.24,2.88,3.96,16.6,82.4,1016.02,0.22,0,0,0,0.029602
2018/07/30 00:53:00.005,n,297,2.88,2.52,3.6,16.6,82.6,1016.02,0.22,0,0,0,0.030479
2018/07/30 00:54:00.003,n,272,2.88,2.16,3.24,16.5,82.7,1015.92,0.22,0,0,0,0.029602
2018/07/30 00:55:00.001,n,286,0.36,0.36,1.08,16.5,82.7,1015.82,0.22,0,0,0,0.025253
2018/07/30 00:56:00.000,n,356,0.72,0.72,1.08,16.5,83.3,1015.82,0.22,0,0,0,0.025253
2018/07/30 00:57:00.000,n,356,1.8,1.8,2.16,16.6,83.3,1015.82,0.22,0,0,0,0.029602
2018/07/30 00:58:00.000,n,290,1.08,0.72,1.44,16.6,83.3,1015.82,0.22,0,0,0,0.033112
2018/07/30 00:59:00.007,n,268,1.44,1.08,1.8,16.6,83,1015.82,0.22,0,0,0,0.025253
2018/07/30 01:00:00.003,n,259,2.52,1.8,2.88,16.6,82.8,1015.82,0.22,0,0,0,0.025253
2018/07/30 01:01:00.000,n,275,3.96,3.6,4.32,16.5,82.6,1015.82,0.22,0,0,0,0.028763
2018/07/30 01:02:00.014,n,262,4.68,4.32,4.68,16.5,82.6,1015.82,0.22,0,0,0,0.02697
2018/07/30 01:03:00.010,n,267,3.6,2.88,4.32,16.5,82.7,1015.82,0.22,0,0,0,0.022621
2018/07/30 01:04:00.000,n,263,4.68,4.32,5.04,16.5,82.8,1015.82,0.22,0,0,0,0.026131
2018/07/30 01:05:00.000,n,268,3.96,3.96,4.32,16.4,82.7,1015.82,0.22,0,0,0,0.025253
2018/07/30 01:06:00.002,n,267,4.68,4.68,4.68,16.4,82.7,1015.72,0.22,0,0,0,0.02697
2018/07/30 01:07:00.000,n,267,5.04,4.32,5.4,16.4,82.8,1015.72,0.22,0,0,0,0.024376
2018/07/30 01:08:00.000,n,268,3.96,3.6,4.32,16.4,82.7,1015.72,0.22,0,0,0,0.025253
2018/07/30 01:09:00.010,n,275,1.44,1.44,1.8,16.4,82.7,1015.72,0.22,0,0,0,0.027847
2018/07/30 01:10:00.007,n,247,1.8,0.72,2.16,16.4,83,1015.72,0.22,0,0,0,0.023499
2018/07/30 01:11:00.004,n,221,1.44,1.08,1.44,16.4,83,1015.72,0.22,0,0,0,0.022621
2018/07/30 01:12:00.001,n,182,1.44,0.36,3.6,16.4,83,1015.72,0.22,0,0,0,0.020905
2018/07/30 01:13:00.000,n,255,3.24,3.24,3.6,16.4,83,1015.72,0.22,0,0,0,0.033112
2018/07/30 01:14:00.000,n,269,3.6,3.24,4.32,16.4,83,1015.62,0.22,0,0,0,0.032234
2018/07/30 01:15:00.005,n,260,4.68,4.32,5.04,16.4,83,1015.62,0.22,0,0,0,0.033112
2018/07/30 01:16:00.001,n,265,3.24,2.88,3.6,16.4,83,1015.62,0.22,0,0,0,0.032234
2018/07/30 01:17:00.000,n,241,4.68,4.32,5.04,16.4,83,1015.62,0.22,0,0,0,0.030479
2018/07/30 01:18:00.000,n,243,3.96,3.6,4.32,16.4,83,1015.52,0.22,0,0,0,0.034828
2018/07/30 01:19:00.012,n,243,2.52,2.16,2.88,16.4,82.8,1015.52,0.22,0,0,0,0.033112
2018/07/30 01:20:00.009,n,182,0.72,0,1.8,16.4,83,1015.52,0.22,0,0,0,0.030479
2018/07/30 01:21:00.006,n,145,2.52,1.44,3.24,16.4,83.2,1015.52,0.22,0,0,0,0.032234
2018/07/30 01:22:00.000,n,199,3.96,3.24,4.32,16.4,83.1,1015.52,0.22,0,0,0,0.032234
2018/07/30 01:23:00.002,n,273,3.6,3.24,3.96,16.4,83,1015.52,0.22,0,0,0,0.032234
2018/07/30 01:24:00.000,n,235,3.24,2.88,3.24,16.4,82.9,1015.52,0.22,0,0,0,0.028763
2018/07/30 01:25:00.000,n,240,3.6,2.88,3.96,16.4,82.8,1015.42,0.22,0,0,0,0.031357
2018/07/30 01:26:00.010,n,276,3.6,3.24,3.96,16.4,82.9,1015.42,0.22,0,0,0,0.030479
2018/07/30 01:27:00.006,n,259,4.68,4.32,5.04,16.4,82.9,1015.42,0.22,0,0,0,0.030479
2018/07/30 01:28:00.003,n,319,1.8,0.72,2.16,16.4,82.9,1015.42,0.22,0,0,0,0.02964
2018/07/30 01:29:00.000,n,279,1.8,0.72,2.52,16.4,83.1,1015.42,0.22,0,0,0,0.030479
2018/07/30 01:30:00.015,n,278,4.68,3.96,4.68,16.4,82.8,1015.42,0.22,0,0,0,0.031357
2018/07/30 01:31:00.000,n,3,1.8,1.44,2.52,16.4,83.4,1015.42,0.22,0,0,0,0.02964
2018/07/30 01:32:00.000,n,337,1.44,1.08,1.44,16.4,83.6,1015.32,0.22,0,0,0,0.026131
2018/07/30 01:33:00.006,n,67,1.8,1.44,2.16,16.5,84.3,1015.32,0.22,0,0,0,0.027847
2018/07/30 01:34:00.003,n,340,1.8,1.44,1.8,16.5,83.6,1015.32,0.22,0,0,0,0.030479
2018/07/30 01:35:00.000,n,52,3.96,3.24,4.68,16.6,83.8,1015.22,0.22,0,0,0,0.030479
2018/07/30 01:36:00.000,n,83,2.88,2.16,3.6,16.6,84.5,1015.22,0.22,0,0,0,0.030479
2018/07/30 01:37:00.011,n,72,5.04,4.68,5.4,16.6,83.7,1015.12,0.22,0,0,0,0.028763
2018/07/30 01:38:00.008,n,141,1.44,0.36,1.8,16.6,83.9,1015.12,0.22,0,0,0,0.027008
2018/07/30 01:39:00.005,n,95,2.16,2.16,2.52,16.6,84,1015.12,0.22,0,0,0,0.035706
2018/07/30 01:40:00.000,n,109,3.6,3.6,3.96,16.5,83.9,1015.12,0.22,0,0,0,0.027847
2018/07/30 01:41:00.000,n,164,0.36,0.36,1.08,16.5,84.1,1015.02,0.22,0,0,0,0.033989
2018/07/30 01:42:00.000,n,342,1.08,0.72,1.44,16.5,84.5,1015.02,0.22,0,0,0,0.031357
2018/07/30 01:43:00.000,n,39,2.52,1.8,2.52,16.5,84.8,1015.02,0.22,0,0,0,0.027008
2018/07/30 01:44:00.007,n,113,0.72,0.72,1.08,16.5,84.7,1015.02,0.22,0,0,0,0.027847
2018/07/30 01:45:00.003,n,99,1.8,1.44,2.16,16.5,84.5,1015.02,0.22,0,0,0,0.030479
2018/07/30 01:46:00.001,n,86,1.8,1.44,1.8,16.5,84.7,1015.02,0.22,0,0,0,0.02964
2018/07/30 01:47:00.015,n,99,0.72,0.36,0.72,16.5,84.7,1014.92,0.22,0,0,0,0.028763
2018/07/30 01:48:00.011,n,245,1.44,1.08,1.8,16.5,84.6,1014.92,0.22,0,0,0,0.027008
2018/07/30 01:49:00.000,n,226,1.44,1.08,1.8,16.4,84.6,1014.92,0.22,0,0,0,0.031357
2018/07/30 01:50:00.000,n,238,0.36,0,0.72,16.4,84.5,1015.02,0.22,0,0,0,0.028763
2018/07/30 01:51:00.003,n,150,0.36,0.36,0.72,16.4,84.5,1015.02,0.22,0,0,0,0.027847
2018/07/30 01:52:00.000,n,119,0.72,0.36,1.08,16.3,84.4,1014.92,0.22,0,0,0,0.031357
2018/07/30 01:53:00.000,n,172,1.8,1.44,2.16,16.3,84.5,1014.92,0.22,0,0,0,0.030479
2018/07/30 01:54:00.011,n,199,2.16,2.16,2.52,16.3,84.6,1015.02,0.22,0,0,0,0.030479
2018/07/30 01:55:00.008,n,205,0.36,0,0.36,16.200002,84.4,1015.02,0.22,0,0,0,0.030479
2018/07/30 01:56:00.005,n,263,3.24,2.88,3.6,16.200002,84.5,1015.02,0.22,0,0,0,0.027847
2018/07/30 01:57:00.002,n,270,3.24,1.8,3.96,16.200002,84.4,1015.02,0.22,0,0,0,0.027847
2018/07/30 01:58:00.000,n,216,2.52,2.16,2.88,16.1,84.4,1015.02,0.22,0,0,0,0.025253
2018/07/30 01:59:00.000,n,267,2.88,2.52,3.24,16.1,84.4,1015.02,0.22,0,0,0,0.027008
2018/07/30 02:00:00.000,n,243,2.52,2.16,2.88,16.1,84.4,1015.02,0.22,0,0,0,0.026131
2018/07/30 02:01:00.000,n,252,3.96,3.6,5.4,16.1,84.3,1015.02,0.22,0,0,0,0.027008
2018/07/30 02:02:00.005,n,258,4.32,3.96,4.32,16,84.4,1014.92,0.22,0,0,0,0.022659
2018/07/30 02:03:00.002,n,239,1.44,0.36,2.16,16,84.4,1014.92,0.22,0,0,0,0.023499
2018/07/30 02:04:00.000,n,257,4.32,3.96,5.04,16,84.5,1015.02,0.22,0,0,0,0.024414
2018/07/30 02:05:00.013,n,269,3.6,3.24,3.96,16,84.5,1015.02,0.22,0,0,0,0.021782
2018/07/30 02:06:00.009,n,249,3.6,2.88,3.6,16,84.5,1015.02,0.22,0,0,0,0.033073
2018/07/30 02:07:00.000,n,261,3.24,2.88,3.96,16,84.5,1015.02,0.22,0,0,0,0.035706
2018/07/30 02:08:00.000,n,288,3.6,2.88,3.96,16,84.5,1015.02,0.22,0,0,0,0.035706
2018/07/30 02:09:00.000,n,287,4.32,3.96,5.4,16,84.4,1015.02,0.22,0,0,0,0.034828
2018/07/30 02:10:00.000,n,257,6.12,5.04,7.2,16,84.3,1015.02,0.22,0,0,0,0.036583
2018/07/30 02:11:00.000,n,258,1.44,0.72,2.16,16,84.4,1015.02,0.22,0,0,0,0.034828
2018/07/30 02:12:00.007,n,302,2.16,1.8,3.24,16,84.6,1015.02,0.22,0,0,0,0.035706
2018/07/30 02:13:00.004,n,327,3.24,2.88,3.6,16,84.8,1015.02,0.22,0,0,0,0.032196
2018/07/30 02:14:00.001,n,53,2.52,1.8,2.88,16,84.9,1015.02,0.22,0,0,0,0.029602
2018/07/30 02:15:00.000,n,18,4.32,3.96,4.68,16,84.7,1015.02,0.22,0,0,0,0.030479
2018/07/30 02:16:00.000,n,39,2.16,1.8,2.88,16,84.9,1015.02,0.22,0,0,0,0.030479
2018/07/30 02:17:00.000,n,39,1.44,1.08,1.8,16,85.1,1015.02,0.22,0,0,0,0.031357
2018/07/30 02:18:00.000,n,313,2.88,2.88,3.24,16.1,84.9,1015.02,0.22,0,0,0,0.030479
2018/07/30 02:19:00.007,n,335,2.88,2.88,3.24,16,84.8,1015.02,0.22,0,0,0,0.028725
2018/07/30 02:20:00.003,n,191,0.36,0,0.36,16,85,1015.02,0.22,0,0,0,0.027008
2018/07/30 02:21:00.000,n,120,0.72,0.36,0.72,16,84.9,1014.92,0.22,0,0,0,0.028725
2018/07/30 02:22:00.000,n,135,0.36,0,0.36,16,84.8,1014.92,0.22,0,0,0,0.027847
2018/07/30 02:23:00.011,n,211,0.36,0,0.36,16,84.8,1014.92,0.22,0,0,0,0.027847
2018/07/30 02:24:00.008,n,260,0.36,0,0.72,16,84.9,1014.92,0.22,0,0,0,0.027847
2018/07/30 02:25:00.000,n,311,1.44,0.36,2.16,16,85,1014.92,0.22,0,0,0,0.027847
2018/07/30 02:26:00.003,n,71,1.44,0.72,1.8,16,85.4,1014.92,0.22,0,0,0,0.027008
2018/07/30 02:27:00.000,n,14,1.08,0.72,1.44,16,85.4,1014.92,0.22,0,0,0,0.027008
2018/07/30 02:28:00.000,n,164,0.72,0.36,1.08,16,85.4,1014.92,0.22,0,0,0,0.032234
2018/07/30 02:29:00.006,n,32,2.88,2.88,3.6,16.1,85.2,1014.92,0.22,0,0,0,0.031357
2018/07/30 02:30:00.003,n,48,1.08,0.36,1.8,16,85.2,1014.92,0.22,0,0,0,0.039177
2018/07/30 02:31:00.001,n,58,1.8,1.44,1.8,16,85.3,1014.92,0.22,0,0,0,0.030441
2018/07/30 02:32:00.015,n,58,1.8,1.44,2.16,16,85.4,1014.92,0.22,0,0,0,0.030441
2018/07/30 02:33:00.011,n,46,0.36,0,1.08,16.1,85.6,1014.92,0.22,0,0,0,0.033073
2018/07/30 02:34:00.000,n,72,2.16,1.8,2.52,16.1,85.5,1014.92,0.22,0,0,0,0.034828
2018/07/30 02:35:00.000,n,331,0.36,0.36,0.72,16.1,85.3,1014.92,0.22,0,0,0,0.027008
2018/07/30 02:36:00.003,n,322,0.36,0.36,0.72,16,85.1,1014.92,0.22,0,0,0,0.025253
2018/07/30 02:37:00.000,n,38,1.44,0.36,2.16,16,85.3,1014.92,0.22,0,0,0,0.022659
2018/07/30 02:38:00.000,n,327,0.36,0.36,0.72,16,85.3,1014.92,0.22,0,0,0,0.022659
2018/07/30 02:39:00.011,n,106,2.16,1.8,2.16,16,85.2,1014.92,0.22,0,0,0,0.032234
2018/07/30 02:40:00.008,n,150,1.8,1.44,1.8,15.9,85.1,1014.92,0.22,0,0,0,0.025253
2018/07/30 02:41:00.006,n,274,0,0,0.36,15.9,85,1014.82,0.22,0,0,0,0.027008
2018/07/30 02:42:00.004,n,189,0.72,0.36,1.08,15.9,85.3,1014.82,0.22,0,0,0,0.030441
2018/07/30 02:43:00.001,n,356,1.44,1.08,1.8,15.9,85.7,1014.92,0.22,0,0,0,0.026093
2018/07/30 02:44:00.000,n,310,2.88,2.16,3.24,15.9,85.5,1014.92,0.22,0,0,0,0.031357
2018/07/30 02:45:00.000,n,330,2.52,2.16,2.88,15.9,85.3,1014.92,0.22,0,0,0,0.026093
2018/07/30 02:46:00.000,n,348,1.8,1.44,2.16,15.8,85.5,1014.92,0.22,0,0,0,0.022659
2018/07/30 02:47:00.008,n,49,1.44,0.72,2.16,15.8,85.7,1014.92,0.22,0,0,0,0.021744
2018/07/30 02:48:00.005,n,34,1.08,1.08,1.44,15.8,85.7,1014.82,0.22,0,0,0,0.027847
2018/07/30 02:49:00.001,n,202,0.72,0.36,1.8,15.9,85.8,1014.82,0.22,0,0,0,0.020866
2018/07/30 02:50:00.000,n,337,1.08,0.72,1.44,15.9,85.8,1014.82,0.22,0,0,0,0.01915
2018/07/30 02:51:00.013,n,301,2.16,2.16,2.52,15.9,85.6,1014.82,0.22,0,0,0,0.01915
2018/07/30 02:52:00.000,n,309,2.88,2.16,3.24,15.9,85.5,1014.82,0.22,0,0,0,0.023499
2018/07/30 02:53:00.000,n,291,2.52,2.16,2.52,15.8,85.3,1014.82,0.22,0,0,0,0.026093
2018/07/30 02:54:00.004,n,312,2.16,2.16,2.88,15.8,85.3,1014.82,0.22,0,0,0,0.024376
2018/07/30 02:55:00.000,n,297,2.88,2.52,3.96,15.7,85.3,1014.82,0.22,0,0,0,0.027885
2018/07/30 02:56:00.000,n,300,3.24,2.52,3.6,15.7,85.2,1014.82,0.22,0,0,0,0.033073
2018/07/30 02:57:00.007,n,275,2.52,1.08,2.88,15.7,85.2,1014.82,0.22,0,0,0,0.033073
2018/07/30 02:58:00.003,n,257,2.52,2.52,2.88,15.6,85.2,1014.82,0.22,0,0,0,0.039177
2018/07/30 02:59:00.001,n,260,4.32,3.6,5.04,15.6,85.1,1014.82,0.22,0,0,0,0.033951
2018/07/30 03:00:00.015,n,278,5.4,5.04,6.48,15.6,84.9,1014.82,0.22,0,0,0,0.031357
2018/07/30 03:01:00.000,n,278,5.76,4.32,6.48,15.6,84.7,1014.82,0.22,0,0,0,0.027885
2018/07/30 03:02:00.000,n,270,9.72,7.92,10.440002,15.6,84.4,1014.72,0.22,0,0,0,0.032234
2018/07/30 03:03:00.000,n,267,8.64,8.28,9.36,15.5,84.3,1014.72,0.22,0,0,0,0.031357
2018/07/30 03:04:00.004,n,282,9,8.28,10.08,15.5,84,1014.72,0.22,0,0,0,0.033073
2018/07/30 03:05:00.000,n,295,5.04,2.88,6.12,15.5,83.9,1014.72,0.22,0,0,0,0.031357
2018/07/30 03:06:00.000,n,277,6.12,5.4,6.48,15.6,83.8,1014.72,0.22,0,0,0,0.026093
2018/07/30 03:07:00.012,n,277,5.76,4.68,6.84,15.6,83.7,1014.72,0.22,0,0,0,0.025253
2018/07/30 03:08:00.008,n,264,3.24,2.88,4.32,15.6,83.5,1014.72,0.22,0,0,0,0.028725
2018/07/30 03:09:00.006,n,322,2.88,2.88,3.6,15.6,83.6,1014.72,0.22,0,0,0,0.026093
2018/07/30 03:10:00.000,n,287,3.24,1.8,3.96,15.6,83.7,1014.72,0.22,0,0,0,0.033073
2018/07/30 03:11:00.001,n,294,0.72,0.36,0.72,15.7,83.7,1014.72,0.22,0,0,0,0.029602
2018/07/30 03:12:00.000,n,243,2.16,1.8,2.52,15.7,83.6,1014.72,0.22,0,0,0,0.030479
2018/07/30 03:13:00.000,n,249,4.32,3.6,4.68,15.7,83.5,1014.82,0.22,0,0,0,0.027885
2018/07/30 03:14:00.009,n,241,2.88,2.52,3.6,15.7,83.4,1014.82,0.22,0,0,0,0.027885
2018/07/30 03:15:00.005,n,263,0.72,0.36,0.72,15.7,83.3,1014.82,0.22,0,0,0,0.027008
2018/07/30 03:16:00.002,n,271,5.76,4.68,6.48,15.6,83.2,1014.82,0.22,0,0,0,0.025253
2018/07/30 03:17:00.000,n,283,5.04,4.32,5.4,15.6,83.1,1014.82,0.22,0,0,0,0.026093
2018/07/30 03:18:00.013,n,299,5.04,3.96,5.76,15.6,83,1014.82,0.22,0,0,0,0.028725
2018/07/30 03:19:00.000,n,250,7.92,7.2,8.28,15.6,82.9,1014.82,0.22,0,0,0,0.030479
2018/07/30 03:20:00.000,n,268,9,8.28,9.72,15.6,82.6,1014.72,0.22,0,0,0,0.028725
2018/07/30 03:21:00.004,n,276,10.440002,9.36,11.52,15.6,82.4,1014.72,0.22,0,0,0,0.027885
2018/07/30 03:22:00.001,n,282,7.56,7.2,7.92,15.6,82.3,1014.72,0.22,0,0,0,0.028725
2018/07/30 03:23:00.000,n,273,6.84,5.76,7.56,15.6,82.1,1014.82,0.22,0,0,0,0.027885
2018/07/30 03:24:00.000,n,265,9.72,9.36,10.08,15.7,81.9,1014.72,0.22,0,0,0,0.025253
2018/07/30 03:25:00.010,n,294,1.8,1.44,3.24,15.7,81.9,1014.72,0.22,0,0,0,0.026093
2018/07/30 03:26:00.006,n,283,6.84,6.12,8.28,15.7,81.6,1014.72,0.22,0,0,0,0.025253
2018/07/30 03:27:00.004,n,264,11.88,11.52,12.96,15.7,81.3,1014.82,0.22,0,0,0,0.020905
2018/07/30 03:28:00.001,n,266,5.04,3.96,6.84,15.7,81.3,1014.82,0.22,0,0,0,0.024376
2018/07/30 03:29:00.000,n,281,5.76,4.32,6.84,15.7,81.3,1014.82,0.22,0,0,0,0.025253
2018/07/30 03:30:00.000,n,232,10.440002,6.84,14.04,15.7,81.1,1014.72,0.22,0,0,0,0.025253
2018/07/30 03:31:00.000,n,274,7.56,5.76,9,15.7,81,1014.72,0.22,0,0,0,0.027008
2018/07/30 03:32:00.007,n,276,8.64,7.92,9.72,15.7,80.9,1014.72,0.22,0,0,0,0.024376
2018/07/30 03:33:00.004,n,282,7.56,5.76,8.64,15.8,80.8,1014.72,0.22,0,0,0,0.023499
2018/07/30 03:34:00.001,n,262,12.6,10.440002,13.68,15.8,80.4,1014.72,0.22,0,0,0,0.026093
2018/07/30 03:35:00.000,n,257,14.04,13.68,14.76,15.8,80.2,1014.72,0.22,0,0,0,0.027885
2018/07/30 03:36:00.013,n,262,13.32,11.16,15.12,15.8,80,1014.72,0.22,0,0,0,0.027008
2018/07/30 03:37:00.000,n,258,4.68,3.24,5.76,15.8,79.8,1014.72,0.22,0,0,0,0.024376
2018/07/30 03:38:00.000,n,265,14.76,12.24,16.56,15.8,79.4,1014.72,0.22,0,0,0,0.024376
2018/07/30 03:39:00.005,n,266,13.68,11.16,15.12,15.9,79.3,1014.72,0.22,0,0,0,0.023499
2018/07/30 03:40:00.001,n,240,9.72,8.64,10.440002,15.9,79.2,1014.72,0.22,0,0,0,0.023499
2018/07/30 03:41:00.000,n,257,13.68,12.6,16.2,15.9,79,1014.62,0.22,0,0,0,0.024376
2018/07/30 03:42:00.000,n,279,13.68,12.6,15.12,15.9,78.8,1014.62,0.22,0,0,0,0.020905
2018/07/30 03:43:00.000,n,259,12.96,11.88,15.48,16,78.7,1014.62,0.22,0,0,0,0.024376
2018/07/30 03:44:00.012,n,240,7.2,6.84,7.56,16,78.7,1014.62,0.22,0,0,0,0.020905
2018/07/30 03:45:00.009,n,283,6.48,0.72,11.52,16,78.5,1014.62,0.22,0,0,0,0.022659
2018/07/30 03:46:00.000,n,282,9,8.28,9.72,16,78.4,1014.62,0.22,0,0,0,0.024376
2018/07/30 03:47:00.004,n,265,10.08,8.64,10.440002,16,78.1,1014.62,0.22,0,0,0,0.025253
2018/07/30 03:48:00.000,n,276,8.64,7.2,9.72,16,78,1014.62,0.22,0,0,0,0.022659
2018/07/30 03:49:00.000,n,251,10.440002,9,11.52,16,77.9,1014.62,0.22,0,0,0,0.022659
2018/07/30 03:50:00.000,n,253,14.4,12.96,15.12,16,77.6,1014.62,0.22,0,0,0,0.018311
2018/07/30 03:51:00.008,n,264,12.24,11.16,13.32,16,77.7,1014.62,0.22,0,0,0,0.022659
2018/07/30 03:52:00.004,n,273,11.16,10.08,11.88,16,77.7,1014.62,0.22,0,0,0,0.025253
2018/07/30 03:53:00.002,n,259,10.440002,7.2,11.88,16,77.5,1014.62,0.22,0,0,0,0.033073
2018/07/30 03:54:00.015,n,265,9.72,8.64,11.88,16.1,77.5,1014.72,0.22,0,0,0,0.033073
2018/07/30 03:55:00.000,n,269,10.08,9,11.16,16.1,77.4,1014.62,0.22,0,0,0,0.033951
2018/07/30 03:56:00.000,n,273,10.440002,8.64,11.88,16.1,77.2,1014.72,0.22,0,0,0,0.032196
2018/07/30 03:57:00.000,n,267,10.8,10.440002,11.52,16.1,77.1,1014.72,0.22,0,0,0,0.030441
2018/07/30 03:58:00.005,n,263,9.36,7.56,11.16,16.1,77,1014.72,0.22,0,0,0,0.031319
2018/07/30 03:59:00.001,n,295,6.12,3.96,7.2,16.1,77,1014.72,0.22,0,0,0,0.032196
2018/07/30 04:00:00.000,n,266,13.68,10.8,15.84,16.1,76.5,1014.72,0.22,0,0,0,0.030441
2018/07/30 04:01:00.012,n,276,9.72,8.28,11.16,16.1,76.5,1014.72,0.22,0,0,0,0.031319
2018/07/30 04:02:00.009,n,255,6.84,6.12,7.56,16.1,76.6,1014.72,0.22,0,0,0,0.029602
2018/07/30 04:03:00.006,n,263,7.92,6.48,9,16.1,76.5,1014.72,0.22,0,0,0,0.029602
2018/07/30 04:04:00.000,n,266,10.8,9.72,11.88,16.1,76.5,1014.72,0.22,0,0,0,0.031319
2018/07/30 04:05:00.000,n,276,9,7.92,11.52,16.1,76.7,1014.72,0.22,0,0,0,0.033951
2018/07/30 04:06:00.000,n,267,9.72,7.2,12.6,16.1,76.5,1014.72,0.22,0,0,0,0.033073
2018/07/30 04:07:00.000,n,256,9.36,7.56,12.96,16.1,76.4,1014.72,0.22,0,0,0,0.030441
2018/07/30 04:08:00.008,n,319,9.36,8.64,10.08,16.1,76.3,1014.72,0.22,0,0,0,0.033951
2018/07/30 04:09:00.004,n,286,6.84,6.12,7.2,16.1,76.3,1014.82,0.22,0,0,0,0.033951
2018/07/30 04:10:00.001,n,279,9.72,9,10.8,16.1,76.2,1014.82,0.22,0,0,0,0.033073
2018/07/30 04:11:00.015,n,299,9.36,8.28,10.8,16.1,76,1014.82,0.22,0,0,0,0.032196
2018/07/30 04:12:00.011,n,269,5.76,4.68,5.76,16.1,76.2,1014.82,0.22,0,0,0,0.028725
2018/07/30 04:13:00.000,n,270,8.64,7.56,9.36,16.1,76,1014.82,0.22,0,0,0,0.032196
2018/07/30 04:14:00.000,n,266,5.4,4.68,6.12,16.1,76,1014.82,0.22,0,0,0,0.033951
2018/07/30 04:15:00.003,n,273,6.12,5.4,6.48,16.1,76.1,1014.82,0.22,0,0,0,0.031319
2018/07/30 04:16:00.000,n,272,8.28,7.92,9,16.1,76,1014.82,0.22,0,0,0,0.039177
2018/07/30 04:17:00.000,n,271,8.28,7.56,9,16.1,75.9,1014.82,0.22,0,0,0,0.034828
2018/07/30 04:18:00.010,n,269,8.64,8.28,9,16.1,75.9,1014.82,0.22,0,0,0,0.035667
2018/07/30 04:19:00.007,n,268,9.36,8.64,10.440002,16.1,75.8,1014.82,0.22,0,0,0,0.042648
2018/07/30 04:20:00.005,n,264,8.64,7.92,9.72,16.1,75.8,1014.82,0.22,0,0,0,0.042648
2018/07/30 04:21:00.004,n,261,11.16,10.440002,11.88,16.1,75.5,1014.82,0.22,0,0,0,0.033951
2018/07/30 04:22:00.000,n,275,9,8.28,9.36,16.1,75.5,1014.82,0.22,0,0,0,0.037422
2018/07/30 04:23:00.000,n,281,9.36,9,9.72,16.1,75.4,1014.82,0.22,0,0,0,0.033073
2018/07/30 04:24:00.000,n,247,7.92,7.56,8.28,16.1,75.5,1014.82,0.22,0,0,0,0.033073
2018/07/30 04:25:00.000,n,264,11.88,2.88,14.4,16.1,75.4,1014.82,0.22,0,0,0,0.037422
2018/07/30 04:26:00.008,n,268,9.72,5.4,11.52,16.1,75.3,1014.92,0.22,0,0,0,0.035667
2018/07/30 04:27:00.005,n,254,11.16,9.72,12.24,16,75.2,1014.92,0.22,0,0,0,0.032196
2018/07/30 04:28:00.002,n,265,11.16,8.28,13.32,16,75.2,1014.92,0.22,0,0,0,0.040016
2018/07/30 04:29:00.000,n,261,10.08,8.64,12.6,16,75.1,1014.92,0.22,0,0,0,0.0383
2018/07/30 04:30:00.013,n,258,10.8,9,12.24,16,75.1,1014.92,0.22,0,0,0,0.033951
2018/07/30 04:31:00.000,n,260,10.8,9.72,11.88,16,75,1014.92,0.22,0,0,0,0.034828
2018/07/30 04:32:00.000,n,281,11.52,10.08,12.24,16,74.8,1014.92,0.22,0,0,0,0.034828
2018/07/30 04:33:00.004,n,264,9.36,7.56,10.8,16,74.9,1014.92,0.22,0,0,0,0.036545
2018/07/30 04:34:00.000,n,262,6.12,4.68,7.92,16,74.8,1014.92,0.22,0,0,0,0.035667
2018/07/30 04:35:00.000,n,269,7.56,5.04,10.08,16,74.8,1014.92,0.22,0,0,0,0.034828
2018/07/30 04:36:00.011,n,253,12.96,12.24,13.32,16,74.6,1014.92,0.22,0,0,0,0.034828
2018/07/30 04:37:00.007,n,250,3.6,2.52,6.12,16,74.8,1014.92,0.22,0,0,0,0.033951
2018/07/30 04:38:00.004,n,283,7.92,6.84,9.36,16,74.9,1015.02,0.22,0,0,0,0.035667
2018/07/30 04:39:00.001,n,268,10.440002,9.72,11.16,16,74.8,1015.02,0.22,0,0,0,0.033951
2018/07/30 04:40:00.000,n,267,15.12,13.68,15.84,15.9,74.5,1015.02,0.22,0,0,0,0.036545
2018/07/30 04:41:00.000,n,275,7.2,3.6,9.36,15.9,74.9,1015.02,0.22,0,0,0,0.031319
2018/07/30 04:42:00.000,n,244,15.12,13.68,17.64,15.9,74.6,1015.02,0.22,0,0,0,0.033951
2018/07/30 04:43:00.007,n,251,12.6,11.52,14.4,15.9,74.6,1015.02,0.22,0,0,0,0.030441
2018/07/30 04:44:00.004,n,268,12.6,11.52,14.04,15.9,74.5,1015.12,0.22,0,0,0,0.033951